Reflectivity
5 -17 11 13 13 -17 11 15 14 15 16 16 10 -17 -20 -20 -20 -20 -20 -20 -20 -20 -20 -20 -20 -20 -20 -20 -20 -20 -20 -20 -20 -20 -20 -20 -20 -20 -20 -20 -20 -20 -20 -20 -20 -20 -20
-20 7 16 12 -20 -16 -17 5 12 12 12 -0 -20 -20 -20 -20 -20 -20 -20 -20 -20 -20 -20 -20 -20 -20 -20 -20 -20 -20 -20 -20 -20 -20 -20 -20 -20 -20 -20 -20 -20 -20 -20 -20 -20 -20 -20
-20 8 14 13 -20 -20 4 12 11 -4 2 -17 -20 -20 -20 -20 -20 -20 -20 -20 -20 -20 -20 -20 -20 -20 -20 -20 -20 -20 -20 -20 -20 -20 -20 -20 -20 -20 -20 -20 -20 -20 -20 -20 -20 -20 -20
-8 14 5 -20 -19 -20 -20 -13 -20 -20 -20 -20 -20 -20 -20 -20 -20 -20 -20 -20 -20 -20 -20 -20 -20 -20 -20 -20 -20 -20 -20 -20 -20 -20 -20 -20 -20 -20 -20 -20 -20 -20 -20 -20 -20 -20 -20
6 14 13 -20 -20 -20 -20 -20 -20 -20 -20 -20 -20 -20 -20 -20 -20 -20 -20 -20 -20 -20 -20 -20 -20 -20 -20 -20 -20 -20 -20 -20 -20 -20 -20 -20 -20 -20 -20 -20 -20 -20 -20 -20 -20 -20 -20
11 13 11 -16 -20 -20 -20 -20 -20 -20 -20 -20 -20 -20 -20 -20 -20 -20 -20 -20 -20 -20 -20 -20 -20 -20 -20 -20 -20 -20 -20 -20 -20 -20 -20 -20 -20 -20 -20 -20 -20 -20 -20 -20 -20 -20 -20
17 15 14 -13 -20 -20 -20 -20 -20 -20 -20 -20 -20 -20 -20 -20 -20 -20 -20 -20 -20 -20 -20 -20 -20 -20 -20 -20 -20 -20 -20 -20 -20 -20 -20 -20 -20 -20 -20 -20 -20 -20 -20 -20 -20 -20 -20
14 12 12 5 -20 -20 -20 -20 -20 -20 -20 -20 -20 -20 -20 -20 -20 -20 -20 -20 -20 -20 -20 -20 -20 -20 -20 -20 -20 -20 -20 -20 -20 -20 -20 -20 -20 -20 -20 -20 -20 -20 -20 -20 -20 -20 -20
13 9 13 4 -20 -20 -20 -20 -20 -20 -20 -20 -20 -20 -20 -20 -20 -20 -20 -20 -20 -20 -20 -20 -20 -20 -20 -20 -20 -20 -20 -20 -20 -20 -20 -20 -20 -20 -20 -20 -20 -20 -20 -20 -20 -20 -20
13 -20 -20 7 6 -20 -20 -20 -20 -20 -20 -20 -20 -20 -20 -20 -20 -20 -20 -20 -20 -20 -20 -20 -20 -20 -20 -20 -20 -20 -20 -20 -20 -20 -20 -20 -20 -20 -20 -20 -20 -20 -20 -20 -20 -20 -20
-20 -20 -20 -3 11 -20 -20 -20 -20 -20 -20 -20 -20 -20 -20 -20 -20 -20 -20 -20 -20 -20 -20 -20 -20 -20 -20 -20 -20 -20 -20 -20 -20 -20 -20 -20 -20 -20 -20 -20 -20 -20 -20 -20 -20 -20 -20
-20 -20 -20 -20 11 -8 -20 -20 -20 -20 -20 -20 -20 -20 -20 -20 -20 -20 -20 -20 -20 -20 -20 -20 -20 -20 -20 -20 -20 -20 -20 -20 -20 -20 -20 -20 -20 -20 -20 -20 -20 -20 -20 -20 -20 -20 -20
-20 -20 -20 -20 3 9 -19 -20 -20 -20 -20 -20 -20 -20 -20 -20 -20 -20 -20 -20 -20 -20 -20 -20 -20 -20 -20 -20 -20 -20 -20 -20 -20 -20 -20 -20 -20 -20 -20 -20 -20 -20 -20 -20 -20 -20 -20
-20 -20 -20 -20 -20 8 6 -20 -20 -20 -20 -20 -20 -20 -20 -20 -20 -20 -20 -20 -20 -20 -20 -20 -20 -20 -20 -20 -20 -20 -20 -20 -20 -20 -20 -20 -20 -20 -20 -20 -20 -20 -20 -20 -20 -20 -20
-1 11 11 8 -20 -20 6 -20 -20 -20 -20 -20 -20 -20 -20 -20 -20 -20 -20 -20 -20 -20 -20 -20 -20 -20 -20 -20 -20 -20 -20 -20 -20 -20 -20 -20 -20 -20 -20 -20 -20 -20 -20 -20 -20 -20 -20
5 10 13 13 8 -9 6 -20 -20 -20 -20 -20 -20 -20 -20 -20 -20 -20 -20 -20 -20 -20 -20 -20 -20 -20 -20 -20 -20 -20 -20 -20 -20 -20 -20 -20 -20 -20 -20 -20 -20 -20 -20 -20 -20 -20 -20
13 13 12 13 6 10 -14 -20 -20 -20 -20 -20 -20 -20 -20 -20 -20 -20 -20 -20 -20 -20 -20 -20 -20 -20 -20 -20 -20 -20 -20 -20 -20 -20 -20 -20 -20 -20 -20 -20 -20 -20 -20 -20 -20 -20 -20
-20 -19 11 13 11 9 -20 -20 -20 -20 -20 -20 -20 -20 -20 -20 -20 -20 -20 -20 -20 -20 -20 -20 -20 -20 -20 -20 -20 -20 -20 -20 -20 -20 -20 -20 -20 -20 -20 -20 -20 -20 -20 -20 -20 -20 4
-20 -20 -20 -20 -20 -20 -20 -20 -20 -20 -20 -20 -20 -20 -20 -20 -20 -20 -20 -20 -20 -20 -20 -20 -20 -20 -20 -20 -20 -20 -20 -20 -20 -20 -20 -20 -20 -20 -20 -20 -20 -20 -20 -20 -18 0 -11
-20 -20 -20 -20 -20 -20 -20 -20 -20 -20 -20 -20 -20 -20 -20 -20 -20 -20 -20 -20 -20 -20 -20 -20 -20 -20 -20 -20 -20 -20 -20 -20 -20 -20 -20 -20 -20 -20 -20 -20 -20 -20 -19 -11 11 22 2
9 -20 -20 -20 -20 -20 -20 -20 -20 -20 -20 -20 -20 -20 -20 -20 -20 -20 -20 -20 -20 -20 -20 -20 -20 -20 -20 -20 -20 -20 -20 -20 -20 -4 5 15 14 -16 -20 -20 -20 -20 -20 -18 12 7 20
0 8 12 12 13 -10 -20 -20 -20 -20 -20 -20 -20 -20 -20 -20 -20 -20 -20 -20 -20 -20 -20 -20 -20 -20 -20 -20 -10 -12 -20 -16 15 21 22 27 28 15 -20 -20 -20 -20 -20 -20 -20 -6 13
6 2 10 10 0 3 8 -15 -20 -20 -20 -20 -20 -20 -20 -20 -20 -20 -20 -20 -20 -20 -20 -20 -19 -20 -20 -16 16 -5 -19 5 16 24 23 31 25 22 17 -20 -20 -20 -20 -20 -20 -20 -20
11 -1 -4 12 3 10 -3 9 13 5 -16 -20 -20 -20 -20 -20 -20 -20 -20 -20 -20 -20 -12 -20 -16 -15 -20 2 -20 -20 -20 -20 -20 7 10 20 20 30 13 13 11 -20 -20 -20 -20 -20 -20
15 14 10 -4 10 11 11 17 1 19 14 21 -3 -20 -20 -16 -20 -20 -9 17 -18 -15 13 -3 -5 17 5 -17 -9 -16 -20 -20 -20 -9 -20 3 25 21 18 7 -1 -20 -20 -20 -20 -19 -20
-1 -6 -11 -20 -15 5 10 6 -1 12 24 19 -18 17 18 10 -13 -20 -20 -20 -20 -9 5 8 21 18 15 18 0 15 -20 -15 -20 -20 -20 -20 -8 23 13 19 16 -19 -20 -19 -4 -20 -20
-17 -20 -20 -20 -20 -20 7 5 -20 -14 25 33 24 -13 28 23 10 -19 -9 -0 -12 -7 10 -19 -18 6 10 24 34 29 17 -5 18 -20 -20 -20 5 -14 1 -9 -12 -20 -1 9 -8 9 -18
11 2 -20 -20 -20 -20 -14 -7 -15 -19 -8 27 21 -2 23 28 18 11 22 -10 -18 -13 4 8 13 0 -11 10 18 11 21 11 28 21 -3 24 -9 -20 -20 -2 11 -5 -3 -14 11 19 -8
10 -9 -20 -20 -20 -15 6 4 -8 0 0 2 17 13 5 32 21 3 -3 9 23 28 -9 24 14 7 31 32 31 35 29 25 25 10 -20 10 -18 13 22 19 12 24 10 14 18 4 -14
Wind_Speed
16 17 18 18 18 16 16 16 16 17 17 15 14 12 11 11 9 7 5 4 3 3 4 6 7 6 3 7 2 5 13 11 3 4 7 4 7 3 4 3 2 4 1 1 0 0 1
16 16 17 17 17 16 16 16 16 16 16 15 15 13 12 11 9 7 5 5 4 5 6 7 7 2 5 6 2 6 8 4 5 6 6 6 3 3 6 3 4 0 1 1 0 1 2
14 16 17 18 17 16 16 16 16 16 17 16 15 14 12 11 9 8 7 6 5 6 6 6 8 3 8 2 1 5 6 2 3 2 3 2 3 4 3 3 3 1 2 3 2 0 2
11 13 16 17 17 16 15 16 16 17 17 17 16 15 13 12 10 8 7 6 7 6 8 5 4 3 3 1 2 4 6 1 4 3 4 3 6 7 5 2 5 5 4 4 1 1 1
9 11 13 15 16 16 16 16 16 17 18 19 18 17 15 13 10 9 8 6 6 7 5 5 3 4 1 3 5 4 4 3 4 2 6 4 6 4 5 4 4 7 2 3 9 1 1
10 11 11 13 15 16 17 17 17 17 18 19 19 17 16 14 12 10 9 3 4 3 5 2 2 4 6 4 5 4 3 3 5 2 4 9 6 5 5 5 1 3 4 4 6 3 1
11 10 10 11 13 15 17 17 17 18 18 19 18 17 15 14 12 10 4 3 6 5 10 4 1 2 3 6 2 5 4 3 4 9 5 5 8 3 2 1 1 2 3 5 6 5 5
10 11 12 11 13 14 16 17 17 18 19 19 18 17 16 13 10 6 5 6 2 1 4 0 0 2 1 1 4 7 4 4 6 3 3 6 2 2 1 2 2 3 3 5 6 3 3
11 12 13 12 14 15 15 16 18 19 20 20 19 19 16 14 4 6 5 3 2 1 4 1 1 1 2 2 1 6 5 2 4 3 3 4 2 1 1 0 4 3 3 3 6 6 3
11 12 12 14 13 14 15 16 17 19 20 20 19 18 16 14 6 1 3 3 0 1 6 3 2 3 1 1 1 1 2 2 3 2 2 2 1 1 1 1 3 5 3 2 6 4 4
11 12 12 12 12 13 15 16 18 19 20 20 20 17 13 12 5 4 2 2 1 3 4 1 3 1 2 2 2 3 2 3 3 2 2 2 2 1 1 1 3 7 1 3 1 1 3
10 11 11 11 12 12 13 15 17 18 19 20 19 16 9 5 4 2 3 2 2 8 5 2 2 4 3 4 4 6 4 7 1 3 2 2 1 2 2 1 3 5 2 3 3 2 1
10 11 11 11 12 11 12 15 17 18 18 19 18 12 6 1 0 3 1 3 7 5 2 2 2 4 2 4 4 5 4 5 2 4 5 5 1 1 1 2 1 6 5 5 5 4 4
10 11 11 11 12 10 11 13 16 19 19 20 16 6 4 2 2 2 2 6 1 1 4 0 1 2 2 3 1 5 2 2 1 3 3 2 7 3 1 1 1 3 3 4 5 4 5
13 15 14 11 11 9 10 12 15 17 19 21 9 3 3 5 5 2 6 4 6 5 1 0 1 1 2 1 1 3 1 3 5 6 2 2 5 1 1 2 2 2 2 2 1 1 2
11 12 12 12 10 8 9 11 14 17 19 16 2 2 2 7 5 4 6 5 3 2 3 1 3 2 3 2 2 2 1 3 3 4 2 4 4 2 1 2 4 2 5 2 2 4 7
9 10 9 8 6 7 9 11 14 17 21 10 3 4 3 5 2 6 3 6 4 3 2 2 3 3 5 2 3 3 4 4 5 4 2 4 3 3 1 6 8 2 1 2 1 4 5
9 8 8 6 5 5 8 10 12 14 21 9 3 3 4 3 4 1 1 2 3 1 1 3 2 6 6 6 4 5 7 6 8 8 7 5 5 5 11 1 2 3 7 7 4 6 5
7 7 8 7 6 7 7 8 9 10 11 1 2 3 3 3 1 2 4 3 3 3 4 4 4 6 2 4 3 6 4 1 8 8 8 7 2 5 7 2 3 5 5 6 1 3 11
7 7 6 6 8 8 7 8 9 8 7 4 3 4 5 5 1 4 1 4 4 3 3 4 3 3 3 4 5 3 3 2 6 5 6 8 4 8 10 13 3 5 6 7 10 4 10
10 8 8 8 8 7 8 6 6 7 6 3 3 3 3 4 4 1 4 3 3 5 4 4 2 8 8 5 3 5 3 4 3 4 2 2 6 7 15 18 16 20 19 17 15 24 12
13 11 9 10 8 8 9 6 6 4 2 2 2 3 0 3 2 2 3 6 8 5 6 6 6 1 8 7 8 4 2 2 5 1 7 2 5 3 13 13 16 21 16 20 23 26 21
13 14 13 13 10 8 9 8 6 5 2 0 1 2 2 2 2 3 5 7 5 1 5 2 7 2 4 12 12 12 10 8 10 8 9 8 4 3 11 3 6 12 14 13 6 5 7
14 13 13 14 13 13 12 10 9 8 9 3 3 2 2 4 4 5 3 1 4 3 5 4 4 4 5 1 2 2 4 10 11 17 12 9 5 3 6 1 8 4 1 6 11 8 9
14 14 14 14 14 14 13 13 12 10 12 3 3 3 3 4 4 6 7 6 6 5 4 6 9 5 1 2 2 6 4 4 6 4 7 15 9 5 5 7 9 13 4 3 3 6 7
15 15 15 15 15 14 14 14 13 13 11 4 3 3 3 2 7 8 3 5 5 5 4 6 2 1 2 4 3 5 5 3 5 6 3 3 7 5 3 5 6 0 2 2 4 8 8
15 15 15 15 15 16 16 15 14 13 13 6 3 7 2 3 5 6 5 4 4 2 4 4 3 1 0 3 4 5 5 5 6 5 4 3 3 8 9 7 7 6 6 3 4 5 9
15 15 15 16 16 17 17 17 17 14 11 7 3 8 5 3 4 6 4 6 3 3 5 1 3 2 2 4 4 4 5 3 1 2 3 3 4 5 2 5 5 16 4 4 8 6 10
15 15 16 16 16 18 18 19 18 16 11 7 4 4 8 4 4 3 4 6 5 5 1 3 2 3 3 2 2 1 3 1 3 5 1 4 3 2 3 3 8 9 10 6 10 5 8
Wind_Direction
38 31 25 23 19 19 13 16 16 11 6 6 5 2 357 356 358 356 353 345 358 353 347 335 330 328 126 44 336 320 339 340 3 31 54 70 55 94 88 71 52 71 171 63 285 271 274
39 29 26 24 20 20 20 18 10 8 7 6 3 360 358 356 352 345 338 330 330 335 332 332 339 332 78 71 291 343 336 348 27 38 24 43 107 112 97 69 73 155 118 349 261 293 306
41 30 26 23 20 20 16 14 10 8 6 3 3 2 358 355 352 340 330 323 319 317 325 332 351 99 67 168 350 337 7 26 351 36 73 49 129 93 118 96 325 68 25 349 357 309 268
41 27 26 22 19 17 16 13 5 2 1 1 2 360 357 355 351 336 322 308 305 308 316 319 328 81 106 181 194 20 346 24 3 39 94 24 84 98 60 149 29 47 51 7 269 0 268
34 26 24 20 17 15 12 8 3 0 359 360 1 357 356 351 344 335 324 307 296 305 296 319 63 94 95 339 31 315 33 352 315 51 38 78 66 81 33 61 25 12 331 333 317 353 309
27 22 14 16 15 14 11 8 3 359 356 358 358 353 352 349 341 335 319 268 308 20 357 37 56 48 9 318 307 338 333 31 51 351 22 37 48 65 33 42 330 313 334 307 252 283 246
15 12 7 12 10 11 10 7 360 356 354 356 354 349 349 347 337 344 21 26 22 355 41 87 156 141 308 295 277 0 1 7 24 50 36 6 61 44 261 178 135 208 226 250 258 274 308
5 2 4 4 6 7 6 0 358 355 353 352 350 349 346 343 334 5 60 77 92 169 71 348 265 319 270 4 11 337 15 63 55 58 337 22 68 221 192 163 238 237 268 278 277 274 252
359 3 3 5 2 0 1 358 356 353 351 349 349 349 342 338 321 39 70 81 327 268 105 341 38 38 303 29 127 319 30 67 80 62 31 135 164 114 172 213 5 282 219 277 262 320 255
356 356 359 2 1 357 354 354 354 354 350 347 347 344 342 330 48 281 50 301 271 306 72 301 344 350 359 83 32 331 11 108 40 132 160 193 143 94 124 280 112 308 194 274 289 359 296
349 350 352 358 358 354 352 352 352 350 348 345 346 344 346 23 141 57 315 284 233 63 17 282 313 305 355 82 292 352 356 36 130 157 114 274 177 134 225 203 158 244 346 251 217 200 359
337 341 345 352 352 351 348 348 348 346 344 344 343 340 341 18 50 345 328 325 46 42 268 356 310 335 352 21 351 320 32 40 94 117 6 264 307 179 207 216 190 305 353 71 59 99 340
328 334 339 344 343 347 347 347 344 343 343 341 339 340 36 31 34 316 337 43 36 124 359 318 325 24 353 316 348 33 21 14 63 15 4 338 243 259 178 13 45 18 19 335 349 3 240
325 329 333 336 335 343 347 347 343 340 340 339 338 358 20 61 321 341 45 49 91 260 236 9 315 306 270 3 326 336 24 0 193 88 95 47 324 174 165 104 189 50 121 147 290 291 286
320 318 319 322 323 340 345 347 342 340 339 339 335 2 40 344 337 21 71 53 217 200 178 251 327 352 302 304 257 1 228 219 211 181 169 141 277 120 73 151 127 155 180 147 203 244 335
308 309 307 307 312 339 346 349 344 342 339 345 38 37 1 314 345 42 73 233 233 199 144 119 204 187 257 271 331 3 258 197 200 185 163 190 296 183 148 105 30 167 156 83 33 299 287
331 330 318 314 327 348 355 353 349 348 340 342 38 39 272 330 35 50 171 230 265 228 176 179 224 245 223 240 206 233 240 252 186 165 87 142 134 281 207 199 179 132 228 75 141 182 223
329 341 2 9 355 344 357 358 352 359 344 38 26 351 320 344 44 46 196 242 323 242 124 245 216 211 206 189 226 236 229 231 173 154 171 198 154 243 233 153 139 177 198 165 169 225 240
329 335 343 343 335 328 345 348 351 10 30 42 21 274 321 61 114 313 289 267 238 207 222 196 242 209 174 222 245 198 221 260 165 165 168 186 204 320 322 45 22 212 206 217 268 45 231
304 308 316 324 321 317 324 330 339 357 22 85 45 341 328 45 160 149 332 285 288 205 250 193 228 138 159 236 222 269 257 274 185 213 165 154 192 197 248 259 140 195 210 216 210 217 262
292 292 297 303 301 302 304 307 321 331 349 70 55 262 162 303 321 235 166 184 253 277 227 208 234 217 182 220 218 226 231 293 187 216 176 166 246 242 250 269 279 274 266 250 220 242 240
17 359 302 287 281 286 291 289 285 299 334 50 204 179 234 246 203 260 218 232 204 242 182 240 220 204 189 211 206 195 231 170 254 71 157 159 255 273 276 241 241 268 265 255 245 252 257
10 7 2 7 352 302 279 273 260 230 140 278 349 1 111 235 188 159 215 231 255 119 248 231 216 210 222 234 217 224 203 216 228 205 198 160 218 202 266 135 323 272 247 230 240 222 219
3 3 359 357 356 357 352 312 266 226 190 147 211 141 157 256 199 212 223 207 271 241 251 297 199 207 238 31 20 302 241 237 235 234 224 182 205 209 283 63 261 263 242 200 210 247 216
353 351 349 348 354 350 347 337 329 257 206 187 180 175 194 246 210 270 254 242 277 271 256 239 249 222 290 205 256 306 281 288 263 201 204 216 226 228 228 216 286 306 26 50 36 314 14
347 346 343 337 340 337 336 335 331 319 242 192 202 154 173 237 213 231 242 221 255 261 282 236 266 308 218 193 180 221 234 248 273 300 46 91 221 208 192 244 245 221 101 69 113 261 2
335 337 338 335 332 332 331 327 325 315 302 219 228 179 186 223 215 161 202 208 178 203 243 284 263 254 142 200 229 212 238 204 225 212 194 166 179 223 241 256 267 14 354 319 252 353 5
326 326 330 335 330 324 325 325 319 309 296 269 245 186 200 227 226 198 218 204 217 188 246 232 314 205 195 219 222 217 230 201 281 255 225 218 212 214 234 234 257 357 309 348 340 339 18
321 316 325 328 330 321 318 322 320 307 277 266 253 197 210 229 233 199 219 244 234 254 182 214 242 157 236 216 244 271 252 234 208 269 39 248 235 285 235 47 46 41 56 19 1 4 16